{"data":{"norad_id":64552,"intl_designator":"2025-135AA","name":"HYPERFIELD-1B","alt_names":[],"object_type":"PAYLOAD","status":"ACTIVE","operator":null,"country":"FIN","launch_date":"2025-06-23","launch_site_code":"AFWTR","launch_vehicle":null,"mission":null,"orbit_class":"UNKNOWN","rcs_meters":null,"size_class":null,"mass_kg":null,"dimensions":null,"purposes":[],"wikipedia_slug":null,"has_3d_model":false,"image_url":null,"decayed_at":null,"tle_current":{"epoch":"2026-09-21T22:15:55.878048Z","epoch_age_seconds":58444,"freshness":"FRESH","line1":"1 64552U 25135AA  26264.92773007  .00002912  00000+0  12691-3 0  9998","line2":"2 64552  97.4755  19.6963 0001137  53.5898 306.5444 15.22996841 69609","mean_motion":15.22996841,"eccentricity":0.0001137,"inclination_deg":97.4755,"raan_deg":19.6963,"arg_perigee_deg":53.5898,"mean_anomaly_deg":306.5444,"bstar":0.00012691,"rev_number":6960,"period_min":94.55042592567,"perigee_km":496.02544568515,"apogee_km":497.58880797959,"semimajor_km":6874.9441268324,"source":"CELESTRAK","updated_at":"2026-09-22T09:00:29.845207Z"}}}